User: anonymous   Login
Location: Caltech
(34.1382°N, 118.1253°W)
Time: 22:08:54
(UTC-07:00)
Language:

Cosmos 1833 Rocket - Orbit

View from above orbital plane
View from above orbital plane
View from above satellite
View from above satellite

Ground track
Ground track

The orbit data is extracted from the following two-line orbital elements,

1 17590U 87027B   16270.48904085 -.00000208  00000-0 -80059-4 0  9998
2 17590  71.0051 345.2517 0006142 323.7017  36.3689 14.16730422526773
Epoch (UTC): 26 September 2016 11:44:13
Eccentricity: 0.0006142
inclination: 71.0051°
perigee height: 832 km
apogee height: 841 km
right ascension of ascending node: 345.2517°
argument of perigee: 323.7017°
revolutions per day: 14.16730422
mean anomaly at epoch: 36.3689°
orbit number at epoch: 52677

The dashed part of the orbit path shows where the satellite is in the earth's shadow,  

DLR